Flag for India

Past Weather in Nanpara, Uttar Pradesh, India — Yesterday and Last 2 Weeks

Now
86 °F

Fog.


Feels Like: 99 °F
Forecast: 95 / 82 °F
Wind: 5 mph from Southeast

Location: Lucknow / Amausi

Current Time: Jul 16, 2020 at 9:08:32 pm

Latest Report: Jul 16, 2020 at 8:00 pm


Visibility: 2 mi

Pressure: 29.47 "Hg

Humidity: 79%

Dew Point: 79 °F

Location of NanparaLocation

Past Weather in Nanpara — Graph

°F

Nanpara Temperature Yesterday

Maximum temperature yesterday: 93 °F (at 2:30 pm)
Minimum temperature yesterday: 82 °F (at 12:00 am)
Average temperature yesterday: 87 °F

High & Low Weather Summary for the Past Weeks

 TemperatureHumidityPressure
High97 °F (Jul 2, 1:30 pm)100% (Jul 5, 8:00 am)29.62 "Hg (Jul 5, 8:00 am)
Low73 °F (Jul 14, 3:30 am)56% (Jul 2, 2:30 pm)29.39 "Hg (Jul 2, 4:30 pm)
Average86 °F84%29.50 "Hg
* Reported Jul 1 7:30 pm — Jul 16 7:30 pm, Nanpara. Weather by CustomWeather, © 2020

Note: Actual official high and low records may vary slightly from our data, if they occured in-between our weather recording intervals... More about our weather records

Nanpara Weather History for the Previous 24 Hours

Scroll right to see more
 ConditionsComfort  
Time TempWeatherWind HumidityBarometerVisibility
7:30 pm
Thu, Jul 16
86 °FFog.2 mph79%29.47 "Hg2 mi
7:00 pm86 °FFog.No wind79%29.45 "Hg2 mi
6:30 pm86 °FBroken clouds.2 mph79%29.45 "Hg2 mi
6:00 pm91 °FBroken clouds.6 mph75%29.45 "Hg2 mi
5:30 pm91 °FBroken clouds.6 mph75%29.45 "Hg2 mi
4:30 pm91 °FFog.8 mph80%29.45 "Hg2 mi
4:00 pm91 °FFog.8 mph80%29.45 "Hg2 mi
2:00 pm90 °FFog.10 mph79%29.50 "Hg2 mi
1:30 pm88 °FFog.8 mph84%29.50 "Hg2 mi
1:00 pm88 °FFog.8 mph84%29.50 "Hg2 mi
11:00 am88 °FFog.9 mph84%29.53 "Hg2 mi
10:00 am84 °FLight rain. Broken clouds.2 mph89%29.53 "Hg1 mi
9:30 am81 °FWarm.2 mph100%29.53 "Hg1 mi
8:30 am81 °FWarm.6 mph89%29.53 "Hg1 mi
8:00 am82 °FRain. Cloudy.7 mph89%29.53 "Hg1 mi
7:30 am82 °FLight rain. Broken clouds.6 mph89%29.53 "Hg1 mi
7:00 am86 °FFog.10 mph84%29.53 "Hg2 mi
6:30 am84 °FFog.7 mph84%29.53 "Hg2 mi
6:00 am82 °FFog.6 mph89%29.50 "Hg2 mi
5:30 am82 °FFog.6 mph89%29.50 "Hg2 mi
5:00 am82 °FFog.7 mph89%29.50 "Hg2 mi
4:30 am82 °FFog.2 mph89%29.50 "Hg2 mi
4:00 am82 °FFog.6 mph89%29.50 "Hg2 mi
3:30 am84 °FFog.6 mph84%29.50 "Hg2 mi
3:00 am84 °FFog.6 mph84%29.53 "Hg2 mi
2:30 am84 °FFog.5 mph84%29.53 "Hg2 mi
2:00 am84 °FFog.8 mph84%29.53 "Hg2 mi
1:30 am84 °FFog.6 mph84%29.53 "Hg2 mi
1:00 am84 °FFog.5 mph89%29.53 "Hg2 mi
12:30 am84 °FFog.5 mph89%29.53 "Hg2 mi
11:00 pm
Wed, Jul 15
86 °FFog.3 mph84%29.56 "Hg2 mi
10:30 pm88 °FFog.3 mph84%29.56 "Hg2 mi
10:00 pm88 °FFog.2 mph84%29.53 "Hg2 mi
9:30 pm88 °FFog.2 mph84%29.53 "Hg2 mi
9:00 pm88 °FFog.3 mph84%29.50 "Hg2 mi
Weather by CustomWeather, © 2020

See weather overview